Weather History for Montgomery, NY

Change the Weather History Date:

Sunday, May 6, 2012

  Actual Average (KPOU) Record (KPOU)
Temperature  
Mean Temperature 58 °F 56 °F  
Max Temperature 68 °F 69 °F 87 °F (1949)
Min Temperature 48 °F 43 °F 30 °F (1954)
Degree Days  
Heating Degree Days 7 10  
Month to date heating degree days 62  
Since 1 July heating degree days 6001  
Cooling Degree Days 0 0  
Month to date cooling degree days 0  
Year to date cooling degree days 5  
Growing Degree Days 8 (Base 50)    
Moisture  
Dew Point 44 °F    
Average Humidity 64    
Maximum Humidity 83    
Minimum Humidity 54    
Precipitation  
Precipitation 0.00 in 0.13 in 1.78 in (1991)
Month to date precipitation 0.75  
Year to date precipitation 13.84  
Sea Level Pressure  
Sea Level Pressure 30.07 in    
Wind  
Wind Speed 4 mph (NE)    
Max Wind Speed 10 mph    
Max Gust Speed -    
Visibility 10 miles    
Events      
T = Trace of Precipitation, MM = Missing Value Source: NWS Daily Summary

Daily Weather History Graph

Daily Weather History Graph

Search for Another Location

Airport:

Trip Planner

Search our weather history database for the weather conditions in past years. The results will help you decide how hot, cold, wet, or windy it might be!

Date:

Astronomy

May. 06, 2012 Rise Set
Actual Time 5:47 AM EDT 8:00 PM EDT
Civil Twilight 5:16 AM EDT 8:31 PM EDT
Nautical Twilight 4:38 AM EDT 9:09 PM EDT
Astronomical Twilight 3:57 AM EDT 9:51 PM EDT
Moon 9:03 PM EDT (5/6) 5:54 AM EDT (5/6)
Length of Visible Light 15h 14m
Length of Day
14h 13m
Full, 100% of the Moon is Illuminated
May 6
Full
May 12
Last Quarter
May 20
New
May 28
First Quarter
Jun 4
Full

Hourly Weather History & Observations

Time (EDT) Temp. Dew Point Humidity Pressure Visibility Wind Dir Wind Speed Gust Speed Precip Events Conditions
12:54 AM 53.1 °F 39.9 °F 61% 30.06 in 10.0 mi NE 3.5 mph - N/A   Clear
1:54 AM 48.9 °F 37.9 °F 66% 30.05 in 10.0 mi NNE 4.6 mph - N/A   Clear
2:54 AM 48.0 °F 36.0 °F 63% 30.05 in 10.0 mi NNE 3.5 mph - N/A   Scattered Clouds
3:54 AM 48.9 °F 37.9 °F 66% 30.04 in 10.0 mi North 4.6 mph - N/A   Mostly Cloudy
4:06 AM 48.2 °F 37.4 °F 66% 30.05 in 10.0 mi NNE 3.5 mph - N/A   Mostly Cloudy
4:33 AM 50.0 °F 37.4 °F 62% 30.05 in 10.0 mi NNE 5.8 mph - N/A   Overcast
4:54 AM 50.0 °F 37.9 °F 63% 30.05 in 10.0 mi NE 5.8 mph - N/A   Overcast
5:05 AM 50.0 °F 37.4 °F 62% 30.05 in 10.0 mi NNE 4.6 mph - N/A   Overcast
5:54 AM 50.0 °F 39.0 °F 66% 30.06 in 10.0 mi North 5.8 mph - N/A   Overcast
6:05 AM 50.0 °F 39.2 °F 66% 30.07 in 10.0 mi North 4.6 mph - N/A   Overcast
6:54 AM 51.1 °F 39.9 °F 66% 30.09 in 10.0 mi Calm Calm - N/A   Overcast
7:08 AM 51.8 °F 41.0 °F 67% 30.09 in 10.0 mi North 3.5 mph - N/A   Overcast
7:54 AM 52.0 °F 41.0 °F 66% 30.09 in 10.0 mi North 5.8 mph - N/A   Overcast
8:27 AM 53.6 °F 42.8 °F 67% 30.09 in 10.0 mi North 5.8 mph - N/A   Overcast
8:54 AM 54.0 °F 42.1 °F 64% 30.10 in 10.0 mi NNE 4.6 mph - N/A   Overcast
9:54 AM 55.9 °F 45.0 °F 67% 30.11 in 10.0 mi Calm Calm - N/A   Overcast
10:01 AM 55.4 °F 44.6 °F 67% 30.11 in 10.0 mi Calm Calm - N/A   Overcast
10:24 AM 57.2 °F 46.4 °F 67% 30.11 in 10.0 mi Calm Calm - N/A   Overcast
10:49 AM 57.2 °F 46.4 °F 67% 30.11 in 10.0 mi Calm Calm - N/A   Overcast
10:54 AM 59.0 °F 48.0 °F 67% 30.11 in 10.0 mi SW 3.5 mph - N/A   Overcast
11:54 AM 60.1 °F 48.9 °F 67% 30.10 in 10.0 mi SSW 3.5 mph - N/A   Overcast
12:19 PM 60.8 °F 50.0 °F 68% 30.10 in 10.0 mi South 4.6 mph - N/A   Overcast
12:54 PM 61.0 °F 50.0 °F 67% 30.09 in 10.0 mi Calm Calm - N/A   Overcast
1:54 PM 66.0 °F 53.1 °F 63% 30.07 in 10.0 mi SSW 6.9 mph - N/A   Partly Cloudy
2:54 PM 68.0 °F 53.1 °F 59% 30.05 in 10.0 mi Variable 6.9 mph - N/A   Mostly Cloudy
3:54 PM 64.9 °F 51.1 °F 61% 30.04 in 10.0 mi SSW 6.9 mph - N/A   Overcast
4:54 PM 66.9 °F 52.0 °F 59% 30.03 in 10.0 mi SSW 4.6 mph - N/A   Scattered Clouds
5:54 PM 66.0 °F 51.1 °F 59% 30.03 in 10.0 mi SSW 3.5 mph - N/A   Scattered Clouds
6:54 PM 63.0 °F 46.0 °F 54% 30.04 in 10.0 mi South 10.4 mph - N/A   Unknown
7:54 PM 62.1 °F 46.0 °F 56% 30.05 in 10.0 mi SSE 5.8 mph - N/A   Unknown
8:54 PM 60.1 °F 44.1 °F 55% 30.06 in 10.0 mi South 8.1 mph - N/A   Overcast
9:54 PM 55.9 °F 42.1 °F 60% 30.07 in 10.0 mi SSW 8.1 mph - N/A   Clear
10:54 PM 53.1 °F 44.1 °F 71% 30.06 in 10.0 mi WSW 3.5 mph - N/A   Clear
11:54 PM 48.0 °F 43.0 °F 83% 30.08 in 10.0 mi Calm Calm - N/A   Clear